Wind_Speed
61 51 55 59 61 62 62 60 58 49 46 44 42 44 46 46 45 42 41 38 34 36 35 34 32 34 33 29 30 29 29 27 29 29 27 29 31 38 34 33 36 44 38
57 49 56 60 62 59 59 60 58 49 48 48 43 42 46 47 46 45 43 35 34 37 36 34 32 36 35 30 30 29 30 30 28 26 24 33 30 33 35 36 37 43 42
58 50 53 56 58 58 58 60 56 50 51 48 46 45 46 48 48 47 37 33 32 39 39 34 35 37 33 31 29 30 29 30 25 25 24 30 33 27 33 31 37 42 37
50 51 51 53 54 55 55 58 53 50 51 45 44 46 47 46 46 40 37 36 41 43 40 35 35 37 35 30 31 30 29 29 26 26 24 29 28 28 31 32 36 40 40
49 48 47 50 56 57 54 55 54 51 46 41 36 42 46 45 44 43 40 38 41 41 40 34 35 37 35 31 32 31 30 27 27 25 26 26 25 23 30 34 43 45 39
41 42 46 50 56 54 50 49 51 51 47 40 35 39 42 41 41 40 39 38 40 40 39 37 36 37 35 33 33 32 31 29 27 26 27 28 27 27 30 31 32 41 43
41 42 45 45 54 51 48 44 49 47 44 38 38 39 40 39 42 43 41 40 39 40 38 38 36 37 35 35 35 33 31 30 29 29 28 29 28 28 34 34 34 33 35
33 37 41 39 44 41 44 38 39 40 40 38 39 43 47 45 44 40 43 41 39 40 37 37 38 36 34 36 35 36 32 32 31 31 27 31 32 29 36 38 36 38 39
29 33 25 32 35 36 36 35 37 33 36 40 42 38 41 43 41 41 42 38 38 39 37 38 38 34 36 35 36 36 33 35 33 32 31 31 32 29 35 38 41 39 40
18 26 25 25 29 38 36 40 36 33 35 38 39 42 44 42 41 40 39 38 40 36 37 39 35 35 37 36 38 35 36 39 36 34 34 33 33 33 36 39 38 42 39
18 31 20 24 24 28 43 38 34 33 37 41 40 38 39 38 35 35 36 36 36 35 39 36 36 39 36 37 36 38 41 42 40 33 33 35 34 36 37 41 39 42 42
19 26 23 24 20 21 24 32 39 40 39 38 36 32 36 35 35 36 34 32 34 36 37 36 38 39 33 34 36 38 39 40 37 36 37 35 35 37 39 37 41 45 42
23 19 15 17 18 21 24 29 36 42 41 38 35 32 35 29 33 32 30 33 33 36 36 39 38 33 34 34 36 35 37 38 35 37 41 39 35 41 40 39 45 45 47
8 6 11 15 19 23 27 22 25 30 32 35 28 31 29 30 30 31 32 34 33 34 36 41 32 34 35 35 36 35 37 39 41 44 41 42 43 45 39 43 43 43 41
5 7 10 14 16 18 22 24 24 21 19 25 30 31 30 29 30 31 32 31 33 37 40 32 34 35 35 34 33 35 41 41 32 33 36 37 39 46 46 42 42 41 42
2 8 10 11 12 14 19 21 23 25 26 22 29 29 31 31 31 31 32 31 36 37 30 33 35 35 34 33 33 32 39 27 28 28 33 39 40 38 45 38 45 43 45
5 9 11 14 12 16 19 21 26 25 27 29 23 26 33 34 34 33 32 28 32 31 34 34 37 35 35 32 31 28 34 24 31 33 30 35 40 39 40 39 41 45 46
12 10 7 9 12 14 17 19 23 24 28 31 32 35 37 36 36 36 34 34 32 28 30 36 38 36 35 32 32 24 28 18 26 30 28 31 36 35 39 42 44 47 47
11 11 11 11 12 15 15 17 21 24 26 29 32 34 38 37 38 38 37 38 36 34 32 30 39 38 36 33 33 24 25 24 17 20 25 28 31 34 37 39 36 40 45
8 10 12 14 15 15 16 17 19 21 25 28 31 35 37 38 37 37 37 38 38 39 34 36 40 37 39 37 35 30 26 25 23 23 20 26 29 33 40 39 39 43 45
11 11 12 14 17 18 17 19 21 21 24 27 31 35 36 38 38 38 40 46 40 40 41 39 35 41 41 39 38 35 31 31 29 28 26 28 28 26 37 39 43 46 49
15 14 15 16 17 19 20 20 22 24 25 26 29 33 37 40 40 41 40 41 49 44 43 44 37 39 40 41 42 41 40 37 35 35 35 33 32 32 33 37 35 32 38
16 15 15 16 18 21 20 22 24 25 24 25 25 28 33 36 41 41 42 49 54 44 43 45 48 43 45 46 47 45 44 42 42 40 41 42 41 41 41 41 41 40 41
15 15 15 15 16 16 19 21 23 22 22 24 24 25 26 29 37 43 48 51 54 51 58 63 55 50 49 51 53 50 54 50 47 44 45 46 47 48 48 47 47 48 48
11 10 11 11 13 14 16 18 20 19 20 22 25 27 26 26 28 29 28 38 47 53 58 53 55 54 59 55 58 59 56 53 54 52 52 52 51 49 51 54 56 56 58
7 6 6 7 8 9 11 12 13 14 15 16 16 19 23 26 27 27 27 29 31 30 34 41 48 52 53 53 54 60 64 67 63 62 60 59 61 60 61 61 61 60 61
Wind_Direction
266 251 247 248 247 247 248 250 252 250 256 259 245 246 242 238 239 239 242 246 253 257 262 269 276 283 282 271 277 274 272 273 275 272 267 257 252 256 238 235 233 232 237
259 239 238 240 246 244 244 243 247 244 251 253 246 247 238 235 235 233 236 245 253 260 265 268 274 278 280 267 274 270 271 275 276 264 268 252 246 248 240 243 230 223 234
250 240 235 238 241 242 242 243 243 241 245 250 246 246 235 232 231 233 234 242 250 257 260 265 267 273 272 263 269 267 270 277 272 263 269 255 260 261 234 232 224 223 232
241 237 230 232 234 234 235 237 235 238 246 245 244 242 233 229 230 232 230 234 242 251 257 264 269 272 263 262 263 263 270 275 264 258 262 258 274 261 236 231 218 219 233
239 233 233 235 229 229 226 226 229 234 236 238 237 231 228 225 222 222 227 235 246 251 258 264 267 270 260 258 259 259 267 271 266 264 257 258 255 250 233 233 223 230 234
232 232 236 233 227 223 224 224 226 226 231 229 232 224 221 222 223 228 234 238 247 253 261 265 264 266 259 260 258 255 263 268 267 262 260 257 264 251 232 232 232 233 236
236 247 236 232 221 217 220 224 221 220 223 225 224 219 219 223 223 229 238 246 249 251 259 262 263 261 258 262 260 254 259 266 266 266 259 253 261 258 237 230 235 232 225
247 240 229 235 220 223 227 229 222 217 216 213 211 212 219 224 226 232 239 246 248 254 259 258 261 257 259 265 259 255 259 265 263 257 259 259 257 245 235 234 228 226 227
213 236 234 218 215 220 216 222 215 217 217 215 218 217 218 223 228 237 244 245 251 256 255 257 256 258 262 261 258 257 259 263 261 255 261 256 247 246 232 226 227 228 228
204 220 223 213 209 205 209 212 219 221 218 219 221 225 227 227 231 237 241 245 251 255 255 253 254 256 261 262 258 258 261 265 264 257 262 246 239 250 237 223 226 231 236
262 215 202 219 214 220 207 215 215 218 216 218 219 223 227 231 234 236 242 246 251 253 249 252 252 254 256 257 261 264 264 261 264 260 251 247 249 244 232 225 230 234 237
227 219 217 214 221 232 232 229 213 218 219 219 221 222 226 229 232 236 243 247 247 243 250 253 253 260 254 258 263 264 262 262 263 262 249 247 234 240 229 229 232 235 238
175 180 202 218 234 236 236 241 233 229 217 213 216 223 235 241 239 238 243 247 247 247 248 249 253 251 255 261 265 266 267 262 253 247 251 245 242 235 233 236 242 236 240
176 233 267 244 240 242 238 235 253 226 214 215 215 220 221 228 232 236 239 241 245 245 247 249 246 250 258 263 267 268 273 264 261 250 248 245 243 236 232 244 236 237 236
203 226 244 249 232 238 234 238 236 242 229 229 231 225 228 230 234 236 239 243 244 247 245 243 246 251 258 266 271 277 276 268 241 241 239 240 236 226 232 243 234 240 238
217 234 236 252 236 250 234 243 240 238 233 246 221 237 232 230 230 234 238 240 242 243 249 246 248 253 261 268 276 282 275 244 229 231 230 229 231 240 236 227 234 237 241
268 255 236 238 242 248 248 245 243 233 226 233 217 237 235 233 232 232 233 242 251 255 255 255 253 257 261 266 275 280 283 244 229 233 240 233 232 231 233 236 243 239 240
255 262 269 253 251 244 244 246 244 241 236 237 237 233 235 237 237 237 239 241 246 263 272 271 256 255 259 264 270 273 280 275 239 238 232 235 228 236 231 233 234 237 235
258 269 271 265 255 252 251 247 243 242 240 240 240 240 241 242 241 242 244 250 253 262 262 271 257 253 256 260 264 268 268 280 261 238 237 234 232 231 236 234 233 232 232
290 270 260 261 259 256 252 255 254 254 252 248 246 244 245 247 248 247 251 249 254 257 262 270 271 253 254 256 258 260 258 264 263 265 238 241 234 231 233 233 238 247 234
295 290 279 268 265 265 265 262 261 263 260 256 254 251 248 250 253 254 253 249 254 259 262 261 263 247 252 252 256 257 254 255 261 257 252 257 261 243 229 239 249 241 244
300 291 284 280 279 274 272 271 271 269 271 268 264 259 254 253 252 254 255 266 270 256 262 266 263 262 249 255 254 256 256 255 253 255 259 257 256 248 261 253 253 242 238
299 294 287 281 278 273 275 277 278 276 277 276 274 268 259 255 253 252 250 253 260 251 259 253 260 256 257 253 253 255 257 257 259 256 253 254 255 255 257 256 257 255 256
314 312 307 300 295 292 286 285 280 275 272 271 273 274 270 265 259 257 258 263 260 245 256 251 250 250 257 259 252 258 262 258 256 260 262 258 254 253 255 257 259 261 262
319 320 321 322 319 311 300 293 292 291 281 275 271 273 271 270 266 264 259 253 263 257 255 248 245 251 257 256 256 254 257 258 258 259 261 263 265 259 256 255 254 253 257
326 334 333 331 328 320 317 318 315 318 312 306 297 284 278 276 275 273 267 263 262 262 261 258 252 246 238 233 236 246 254 257 261 262 258 261 264 264 264 264 264 261 260
Height
5672 5675 5677 5676 5679 5683 5686 5692 5696 5703 5707 5711 5715 5720 5724 5725 5728 5732 5733 5736 5740 5742 5742 5743 5743 5743 5743 5743 5743 5742 5741 5741 5740 5738 5740 5741 5745 5746 5748 5751 5755 5759 5764
5648 5654 5656 5660 5661 5666 5671 5677 5684 5691 5695 5700 5705 5710 5716 5715 5720 5722 5723 5729 5734 5736 5736 5736 5736 5737 5737 5737 5737 5736 5736 5734 5733 5733 5734 5732 5732 5739 5742 5744 5747 5753 5757
5628 5634 5636 5641 5645 5652 5660 5665 5673 5679 5683 5689 5694 5701 5703 5705 5708 5713 5719 5724 5726 5726 5727 5729 5729 5730 5731 5731 5731 5730 5729 5728 5727 5728 5728 5729 5730 5732 5735 5738 5742 5746 5752
5613 5617 5620 5625 5631 5638 5646 5653 5662 5669 5672 5678 5685 5691 5693 5698 5704 5710 5711 5713 5715 5719 5720 5721 5722 5722 5724 5725 5725 5724 5723 5721 5722 5721 5723 5723 5725 5726 5729 5732 5736 5740 5745
5597 5602 5608 5613 5617 5625 5634 5641 5649 5657 5663 5671 5678 5681 5684 5690 5693 5697 5701 5705 5707 5710 5711 5712 5714 5714 5716 5717 5718 5718 5718 5717 5716 5716 5717 5718 5719 5720 5723 5726 5731 5735 5740
5585 5592 5595 5599 5606 5614 5622 5632 5638 5648 5656 5663 5671 5675 5678 5681 5685 5688 5693 5698 5698 5700 5702 5704 5705 5707 5707 5709 5710 5710 5712 5711 5710 5710 5710 5711 5712 5714 5716 5721 5725 5731 5734
5576 5580 5583 5588 5595 5605 5613 5622 5631 5640 5647 5655 5663 5669 5672 5674 5677 5679 5683 5686 5690 5693 5695 5695 5696 5698 5700 5702 5703 5703 5704 5703 5703 5703 5704 5704 5706 5708 5711 5714 5718 5722 5726
5571 5573 5577 5582 5588 5598 5608 5615 5623 5631 5639 5646 5652 5658 5662 5663 5666 5671 5674 5678 5681 5683 5685 5686 5688 5690 5692 5693 5694 5695 5696 5696 5696 5696 5696 5698 5699 5701 5704 5708 5712 5715 5720
5564 5569 5573 5577 5584 5593 5602 5610 5617 5624 5631 5637 5643 5650 5654 5655 5660 5663 5667 5671 5673 5675 5676 5677 5679 5682 5684 5686 5686 5687 5688 5688 5688 5688 5688 5689 5691 5694 5697 5700 5704 5709 5713
5560 5567 5572 5578 5580 5586 5594 5602 5610 5617 5624 5629 5635 5640 5644 5647 5650 5655 5659 5661 5664 5666 5667 5669 5671 5674 5675 5677 5678 5678 5678 5678 5679 5678 5678 5680 5684 5686 5689 5693 5697 5701 5705
5559 5565 5570 5575 5579 5582 5587 5595 5602 5609 5614 5619 5624 5630 5635 5638 5642 5647 5650 5653 5655 5658 5660 5661 5663 5665 5667 5669 5669 5669 5669 5669 5669 5668 5669 5672 5674 5678 5681 5686 5690 5693 5698
5557 5564 5570 5573 5577 5580 5583 5587 5594 5602 5607 5612 5617 5622 5626 5630 5633 5637 5640 5644 5647 5650 5652 5654 5656 5658 5659 5659 5659 5659 5658 5657 5657 5658 5660 5661 5665 5669 5674 5677 5682 5685 5689
5555 5563 5569 5572 5574 5577 5580 5583 5589 5592 5597 5602 5608 5614 5619 5622 5625 5628 5630 5636 5640 5641 5644 5646 5648 5650 5651 5650 5649 5648 5647 5646 5647 5647 5648 5650 5655 5660 5664 5669 5672 5676 5680
5558 5562 5566 5569 5572 5574 5576 5579 5581 5585 5592 5596 5601 5606 5612 5614 5618 5620 5625 5629 5632 5635 5638 5639 5640 5642 5642 5641 5640 5638 5636 5634 5635 5636 5636 5639 5644 5650 5654 5659 5662 5667 5670
5558 5561 5564 5566 5569 5571 5573 5577 5579 5582 5586 5591 5598 5602 5605 5609 5612 5615 5619 5623 5626 5628 5630 5632 5634 5634 5633 5633 5631 5629 5625 5623 5623 5625 5628 5631 5635 5641 5645 5649 5653 5658 5661
5558 5562 5563 5564 5567 5568 5570 5574 5577 5582 5586 5589 5592 5595 5599 5603 5607 5610 5613 5616 5619 5621 5623 5624 5625 5625 5626 5624 5623 5621 5616 5612 5616 5618 5621 5623 5628 5631 5634 5639 5644 5649 5652
5558 5561 5562 5564 5564 5566 5568 5571 5574 5578 5582 5574 5582 5591 5594 5597 5600 5602 5606 5609 5613 5614 5615 5615 5616 5618 5618 5617 5616 5613 5609 5607 5608 5610 5613 5616 5621 5623 5627 5631 5635 5638 5642
5558 5559 5559 5560 5561 5563 5565 5568 5569 5572 5575 5577 5581 5584 5587 5590 5593 5595 5598 5601 5604 5606 5608 5607 5608 5610 5610 5609 5610 5608 5606 5602 5602 5604 5606 5607 5611 5616 5619 5623 5626 5629 5634
5556 5556 5557 5558 5559 5561 5562 5564 5565 5567 5569 5572 5574 5578 5580 5583 5586 5588 5591 5594 5596 5597 5599 5597 5599 5601 5602 5602 5601 5601 5601 5599 5597 5598 5600 5602 5604 5607 5610 5614 5616 5621 5623
5554 5555 5556 5557 5558 5558 5559 5560 5561 5562 5563 5566 5568 5571 5573 5575 5578 5580 5581 5584 5586 5587 5587 5588 5590 5591 5593 5594 5593 5594 5594 5594 5595 5592 5594 5596 5597 5599 5602 5605 5609 5611 5613
5552 5553 5553 5554 5554 5555 5556 5556 5556 5557 5558 5559 5561 5562 5564 5566 5568 5570 5572 5570 5576 5577 5578 5578 5579 5582 5584 5585 5584 5585 5586 5586 5587 5588 5589 5590 5589 5590 5594 5597 5597 5600 5603
5546 5548 5549 5550 5550 5551 5551 5551 5552 5552 5552 5553 5553 5554 5555 5556 5558 5560 5562 5563 5563 5562 5566 5568 5568 5571 5573 5575 5576 5576 5576 5578 5578 5579 5579 5580 5582 5584 5584 5585 5586 5589 5593
5546 5546 5546 5546 5546 5548 5546 5546 5546 5546 5545 5546 5546 5546 5547 5547 5548 5550 5552 5553 5555 5555 5553 5553 5558 5559 5561 5563 5565 5565 5566 5567 5568 5570 5570 5571 5573 5574 5575 5576 5577 5578 5581
5544 5543 5542 5542 5541 5540 5540 5541 5541 5541 5541 5541 5540 5540 5539 5539 5539 5540 5541 5541 5542 5543 5543 5543 5544 5545 5547 5549 5551 5553 5553 5555 5555 5556 5558 5560 5562 5564 5564 5564 5565 5566 5567
5542 5541 5539 5538 5538 5538 5538 5538 5537 5536 5535 5535 5534 5533 5532 5532 5531 5530 5529 5528 5527 5527 5527 5527 5528 5530 5532 5534 5534 5537 5538 5540 5542 5543 5544 5545 5546 5548 5549 5551 5552 5553 5554
5542 5541 5541 5540 5540 5539 5538 5536 5535 5533 5532 5531 5529 5528 5526 5524 5523 5521 5521 5519 5517 5515 5514 5513 5514 5515 5517 5517 5517 5520 5521 5523 5525 5525 5527 5528 5529 5531 5532 5533 5535 5536 5536